Time,TemperatureF,DewpointF,PressureIn,WindDirection,WindDirectionDegrees,WindSpeedMPH,WindSpeedGustMPH,Humidity,HourlyPrecipIn,Conditions,Clouds,dailyrainin,SoftwareType,DateUTC
2013-05-29 00:03:00,62.0,-99.9,-100.00,SE,125,3.0,-999.0,-999,0.26,,,1.90,,2013-05-29 05:03:00,
2013-05-29 00:12:00,62.0,-99.9,-100.00,SE,125,3.0,-999.0,-999,0.26,,,1.90,,2013-05-29 05:12:00,
2013-05-29 00:22:00,62.0,-99.9,-100.00,SE,125,3.0,-999.0,-999,0.26,,,1.90,,2013-05-29 05:22:00,
2013-05-29 00:33:00,62.0,-99.9,-100.00,SSE,156,1.0,-999.0,-999,0.03,,,1.90,,2013-05-29 05:33:00,
2013-05-29 00:42:00,62.0,-99.9,-100.00,SSE,156,1.0,-999.0,-999,0.03,,,1.90,,2013-05-29 05:42:00,
2013-05-29 00:52:00,62.0,-99.9,-100.00,SE,130,3.0,-999.0,-999,0.01,,,1.91,,2013-05-29 05:52:00,
2013-05-29 01:02:00,62.0,-99.9,-100.00,SE,130,3.0,-999.0,-999,0.01,,,1.91,,2013-05-29 06:02:00,
2013-05-29 01:12:00,62.0,-99.9,-100.00,SE,130,3.0,-999.0,-999,0.01,,,1.91,,2013-05-29 06:12:00,
2013-05-29 01:22:00,62.0,-99.9,-100.00,SE,130,3.0,-999.0,-999,0.01,,,1.91,,2013-05-29 06:22:00,
2013-05-29 01:32:00,62.0,-99.9,-100.00,SE,143,4.0,-999.0,-999,0.01,,,1.91,,2013-05-29 06:32:00,
2013-05-29 01:42:00,62.0,-99.9,-100.00,SE,143,4.0,-999.0,-999,0.01,,,1.91,,2013-05-29 06:42:00,
2013-05-29 01:52:00,62.0,-99.9,-100.00,SE,137,2.0,-999.0,-999,0.00,,,1.91,,2013-05-29 06:52:00,
2013-05-29 02:00:00,62.0,-99.9,-100.00,SSE,147,2.0,-999.0,-999,0.00,,,1.91,,2013-05-29 07:00:00,
2013-05-29 02:01:00,62.0,-99.9,-100.00,SE,137,2.0,-999.0,-999,0.00,,,1.91,,2013-05-29 07:01:00,
2013-05-29 02:12:00,62.0,-99.9,-100.00,SE,137,2.0,-999.0,-999,0.00,,,1.91,,2013-05-29 07:12:00,
2013-05-29 02:22:00,62.0,-99.9,-100.00,SE,137,2.0,-999.0,-999,0.00,,,1.91,,2013-05-29 07:22:00,
2013-05-29 02:35:00,62.0,-99.9,-100.00,SSE,147,2.0,-999.0,-999,0.00,,,1.91,,2013-05-29 07:35:00,
2013-05-29 02:42:00,62.0,-99.9,-100.00,SSE,147,2.0,-999.0,-999,0.00,,,1.91,,2013-05-29 07:42:00,
2013-05-29 02:53:00,62.0,-99.9,-100.00,SSE,147,2.0,-999.0,-999,0.00,,,1.91,,2013-05-29 07:53:00,
2013-05-29 03:32:00,64.0,-99.9,-100.00,ESE,116,4.0,-999.0,-999,0.03,,,1.94,,2013-05-29 08:32:00,
2013-05-29 03:42:00,64.0,-99.9,-100.00,ESE,116,4.0,-999.0,-999,0.03,,,1.94,,2013-05-29 08:42:00,
2013-05-29 03:52:00,64.0,-99.9,-100.00,SE,133,4.0,-999.0,-999,0.02,,,1.94,,2013-05-29 08:52:00,
2013-05-29 04:02:00,64.0,-99.9,-100.00,SE,133,4.0,-999.0,-999,0.02,,,1.94,,2013-05-29 09:02:00,
2013-05-29 04:11:00,64.0,-99.9,-100.00,SE,133,4.0,-999.0,-999,0.02,,,1.94,,2013-05-29 09:11:00,
2013-05-29 04:22:00,64.0,-99.9,-100.00,SE,133,4.0,-999.0,-999,0.02,,,1.94,,2013-05-29 09:22:00,
2013-05-29 04:30:00,64.0,-99.9,-100.00,SSE,156,2.0,-999.0,-999,0.00,,,1.67,,2013-05-29 09:30:00,
2013-05-29 04:33:00,63.0,-99.9,-100.00,SE,142,2.0,-999.0,-999,0.00,,,1.87,,2013-05-29 09:33:00,
2013-05-29 04:42:00,63.0,-99.9,-100.00,SE,142,2.0,-999.0,-999,0.00,,,1.87,,2013-05-29 09:42:00,
2013-05-29 04:53:00,63.0,-99.9,-100.00,SE,142,2.0,-999.0,-999,0.00,,,1.87,,2013-05-29 09:53:00,
2013-05-29 05:03:00,64.0,-99.9,-100.00,SSE,156,2.0,-999.0,-999,0.00,,,1.67,,2013-05-29 10:03:00,
2013-05-29 05:12:00,64.0,-99.9,-100.00,SSE,156,2.0,-999.0,-999,0.00,,,1.67,,2013-05-29 10:12:00,
2013-05-29 05:22:00,64.0,-99.9,-100.00,SSE,156,2.0,-999.0,-999,0.00,,,1.67,,2013-05-29 10:22:00,
2013-05-29 05:53:00,65.0,-99.9,-100.00,SSE,168,2.0,-999.0,-999,0.00,,,1.44,,2013-05-29 10:53:00,
2013-05-29 06:02:00,65.0,-99.9,-100.00,SSE,168,2.0,-999.0,-999,0.00,,,1.44,,2013-05-29 11:02:00,
2013-05-29 06:12:00,65.0,-99.9,-100.00,SSE,168,2.0,-999.0,-999,0.00,,,1.44,,2013-05-29 11:12:00,
2013-05-29 06:22:00,65.0,-99.9,-100.00,SSE,168,2.0,-999.0,-999,0.00,,,1.44,,2013-05-29 11:22:00,
2013-05-29 06:32:00,65.0,-99.9,-100.00,SE,136,3.0,-999.0,-999,0.00,,,1.43,,2013-05-29 11:32:00,
2013-05-29 06:42:00,65.0,-99.9,-100.00,SE,136,3.0,-999.0,-999,0.00,,,1.43,,2013-05-29 11:42:00,
2013-05-29 06:52:00,65.0,-99.9,-100.00,SE,136,3.0,-999.0,-999,0.00,,,1.43,,2013-05-29 11:52:00,
2013-05-29 07:01:00,65.0,-99.9,-100.00,SE,130,4.0,-999.0,-999,0.00,,,0.48,,2013-05-29 12:01:00,
2013-05-29 07:11:00,65.0,-99.9,-100.00,SE,130,4.0,-999.0,-999,0.00,,,0.48,,2013-05-29 12:11:00,
2013-05-29 07:22:00,65.0,-99.9,-100.00,SE,130,4.0,-999.0,-999,0.00,,,0.48,,2013-05-29 12:22:00,
2013-05-29 07:32:00,66.0,-99.9,-100.00,SE,138,3.0,-999.0,-999,0.00,,,0.43,,2013-05-29 12:32:00,
2013-05-29 07:42:00,66.0,-99.9,-100.00,SE,138,3.0,-999.0,-999,0.00,,,0.43,,2013-05-29 12:42:00,
2013-05-29 07:52:00,67.0,-99.9,-100.00,SE,129,4.0,-999.0,-999,0.00,,,0.43,,2013-05-29 12:52:00,
2013-05-29 08:02:00,67.0,-99.9,-100.00,SE,129,4.0,-999.0,-999,0.00,,,0.43,,2013-05-29 13:02:00,
2013-05-29 08:11:00,67.0,-99.9,-100.00,SE,129,4.0,-999.0,-999,0.00,,,0.43,,2013-05-29 13:11:00,
2013-05-29 08:22:00,67.0,-99.9,-100.00,SE,129,4.0,-999.0,-999,0.00,,,0.43,,2013-05-29 13:22:00,
2013-05-29 08:32:00,70.0,-99.9,-100.00,SE,130,4.0,-999.0,-999,0.00,,,0.43,,2013-05-29 13:32:00,
2013-05-29 08:42:00,70.0,-99.9,-100.00,SE,130,4.0,-999.0,-999,0.00,,,0.43,,2013-05-29 13:42:00,
2013-05-29 08:53:00,70.0,-99.9,-100.00,SE,130,4.0,-999.0,-999,0.00,,,0.43,,2013-05-29 13:53:00,
2013-05-29 09:02:00,73.0,-99.9,-100.00,SSE,150,3.0,-999.0,-999,0.00,,,0.43,,2013-05-29 14:02:00,
2013-05-29 09:11:00,73.0,-99.9,-100.00,SSE,150,3.0,-999.0,-999,0.00,,,0.43,,2013-05-29 14:11:00,
2013-05-29 09:22:00,73.0,-99.9,-100.00,SSE,150,3.0,-999.0,-999,0.00,,,0.43,,2013-05-29 14:22:00,
2013-05-29 09:32:00,74.0,-99.9,-100.00,SE,142,4.0,-999.0,-999,0.00,,,0.43,,2013-05-29 14:32:00,
2013-05-29 09:42:00,74.0,-99.9,-100.00,SE,142,4.0,-999.0,-999,0.00,,,0.43,,2013-05-29 14:42:00,
2013-05-29 09:52:00,74.0,-99.9,-100.00,SE,142,4.0,-999.0,-999,0.00,,,0.43,,2013-05-29 14:52:00,
2013-05-29 10:01:00,78.0,-99.9,-100.00,South,172,3.0,-999.0,-999,0.00,,,0.43,,2013-05-29 15:01:00,
2013-05-29 10:11:00,78.0,-99.9,-100.00,South,172,3.0,-999.0,-999,0.00,,,0.43,,2013-05-29 15:11:00,
2013-05-29 10:22:00,78.0,-99.9,-100.00,South,172,3.0,-999.0,-999,0.00,,,0.43,,2013-05-29 15:22:00,
2013-05-29 10:33:00,80.0,-99.9,-100.00,South,186,3.0,-999.0,-999,0.00,,,0.43,,2013-05-29 15:33:00,
2013-05-29 10:43:00,80.0,-99.9,-100.00,South,186,3.0,-999.0,-999,0.00,,,0.43,,2013-05-29 15:43:00,
2013-05-29 10:53:00,81.0,-99.9,-100.00,South,186,4.0,-999.0,-999,0.00,,,0.43,,2013-05-29 15:53:00,
2013-05-29 11:03:00,81.0,-99.9,-100.00,South,186,4.0,-999.0,-999,0.00,,,0.43,,2013-05-29 16:03:00,
2013-05-29 11:13:00,81.0,-99.9,-100.00,South,186,4.0,-999.0,-999,0.00,,,0.43,,2013-05-29 16:13:00,
2013-05-29 11:22:00,81.0,-99.9,-100.00,South,186,4.0,-999.0,-999,0.00,,,0.43,,2013-05-29 16:22:00,
2013-05-29 11:33:00,81.0,-99.9,-100.00,SSW,197,4.0,-999.0,-999,0.00,,,0.43,,2013-05-29 16:33:00,
2013-05-29 11:42:00,81.0,-99.9,-100.00,SSW,197,4.0,-999.0,-999,0.00,,,0.43,,2013-05-29 16:42:00,
2013-05-29 11:52:00,81.0,-99.9,-100.00,SSW,197,4.0,-999.0,-999,0.00,,,0.43,,2013-05-29 16:52:00,
2013-05-29 12:02:00,81.0,-99.9,-100.00,South,189,4.0,-999.0,-999,0.00,,,0.43,,2013-05-29 17:02:00,
2013-05-29 12:12:00,81.0,-99.9,-100.00,South,189,4.0,-999.0,-999,0.00,,,0.43,,2013-05-29 17:12:00,
2013-05-29 12:22:00,81.0,-99.9,-100.00,South,189,4.0,-999.0,-999,0.00,,,0.43,,2013-05-29 17:22:00,
2013-05-29 12:33:00,82.0,-99.9,-100.00,SSW,205,5.0,-999.0,-999,0.01,,,0.44,,2013-05-29 17:33:00,
2013-05-29 12:43:00,82.0,-99.9,-100.00,SSW,205,5.0,-999.0,-999,0.01,,,0.44,,2013-05-29 17:43:00,
2013-05-29 12:53:00,82.0,-99.9,-100.00,SSW,205,5.0,-999.0,-999,0.01,,,0.44,,2013-05-29 17:53:00,
2013-05-29 13:02:00,83.0,-99.9,-100.00,SSW,211,6.0,-999.0,-999,0.01,,,0.44,,2013-05-29 18:02:00,
2013-05-29 13:13:00,83.0,-99.9,-100.00,SSW,211,6.0,-999.0,-999,0.01,,,0.44,,2013-05-29 18:13:00,
2013-05-29 13:22:00,83.0,-99.9,-100.00,SSW,211,6.0,-999.0,-999,0.01,,,0.44,,2013-05-29 18:22:00,
2013-05-29 13:32:00,84.0,-99.9,-100.00,SSE,168,2.0,-999.0,-999,0.00,,,0.44,,2013-05-29 18:32:00,
2013-05-29 13:42:00,84.0,-99.9,-100.00,SSE,168,2.0,-999.0,-999,0.00,,,0.44,,2013-05-29 18:42:00,
2013-05-29 13:52:00,84.0,-99.9,-100.00,SSE,168,2.0,-999.0,-999,0.00,,,0.44,,2013-05-29 18:52:00,
2013-05-29 14:02:00,85.0,-99.9,-100.00,SSE,166,3.0,-999.0,-999,0.00,,,0.44,,2013-05-29 19:02:00,
2013-05-29 14:12:00,85.0,-99.9,-100.00,SSE,166,3.0,-999.0,-999,0.00,,,0.44,,2013-05-29 19:12:00,
2013-05-29 14:22:00,85.0,-99.9,-100.00,SSE,166,3.0,-999.0,-999,0.00,,,0.44,,2013-05-29 19:22:00,
2013-05-29 14:32:00,85.0,-99.9,-100.00,SSW,208,4.0,-999.0,-999,0.00,,,0.44,,2013-05-29 19:32:00,
2013-05-29 14:44:00,85.0,-99.9,-100.00,SSW,208,4.0,-999.0,-999,0.00,,,0.44,,2013-05-29 19:44:00,
2013-05-29 14:53:00,85.0,-99.9,-100.00,SSW,208,4.0,-999.0,-999,0.00,,,0.44,,2013-05-29 19:53:00,
2013-05-29 15:03:00,86.0,-99.9,-100.00,South,172,3.0,-999.0,-999,0.00,,,0.44,,2013-05-29 20:03:00,
2013-05-29 15:12:00,86.0,-99.9,-100.00,South,172,3.0,-999.0,-999,0.00,,,0.44,,2013-05-29 20:12:00,
2013-05-29 15:23:00,86.0,-99.9,-100.00,South,172,3.0,-999.0,-999,0.00,,,0.44,,2013-05-29 20:23:00,
2013-05-29 15:33:00,86.0,-99.9,-100.00,South,174,3.0,-999.0,-999,0.00,,,0.43,,2013-05-29 20:33:00,
2013-05-29 15:42:00,86.0,-99.9,-100.00,South,174,3.0,-999.0,-999,0.00,,,0.43,,2013-05-29 20:42:00,
2013-05-29 15:53:00,86.0,-99.9,-100.00,South,174,3.0,-999.0,-999,0.00,,,0.43,,2013-05-29 20:53:00,
2013-05-29 16:02:00,87.0,-99.9,-100.00,South,185,3.0,-999.0,-999,0.00,,,0.42,,2013-05-29 21:02:00,
2013-05-29 16:12:00,87.0,-99.9,-100.00,South,185,3.0,-999.0,-999,0.00,,,0.42,,2013-05-29 21:12:00,
2013-05-29 16:22:00,87.0,-99.9,-100.00,South,185,3.0,-999.0,-999,0.00,,,0.42,,2013-05-29 21:22:00,
2013-05-29 16:34:00,89.0,-99.9,-100.00,South,174,2.0,-999.0,-999,0.00,,,0.42,,2013-05-29 21:34:00,
2013-05-29 16:44:00,89.0,-99.9,-100.00,South,174,2.0,-999.0,-999,0.00,,,0.42,,2013-05-29 21:44:00,
2013-05-29 16:53:00,88.0,-99.9,-100.00,South,180,4.0,-999.0,-999,0.00,,,0.42,,2013-05-29 21:53:00,
2013-05-29 17:03:00,88.0,-99.9,-100.00,South,180,4.0,-999.0,-999,0.00,,,0.42,,2013-05-29 22:03:00,
2013-05-29 17:13:00,88.0,-99.9,-100.00,South,180,4.0,-999.0,-999,0.00,,,0.42,,2013-05-29 22:13:00,
2013-05-29 17:23:00,88.0,-99.9,-100.00,South,180,4.0,-999.0,-999,0.00,,,0.42,,2013-05-29 22:23:00,
2013-05-29 17:34:00,89.0,-99.9,-100.00,South,176,3.0,-999.0,-999,0.00,,,0.42,,2013-05-29 22:34:00,
2013-05-29 17:43:00,89.0,-99.9,-100.00,South,176,3.0,-999.0,-999,0.00,,,0.42,,2013-05-29 22:43:00,
2013-05-29 17:53:00,87.0,-99.9,-100.00,SSW,197,4.0,-999.0,-999,0.00,,,0.42,,2013-05-29 22:53:00,
2013-05-29 18:02:00,87.0,-99.9,-100.00,SSW,197,4.0,-999.0,-999,0.00,,,0.42,,2013-05-29 23:02:00,
2013-05-29 18:12:00,87.0,-99.9,-100.00,SSW,197,4.0,-999.0,-999,0.00,,,0.42,,2013-05-29 23:12:00,
2013-05-29 18:22:00,87.0,-99.9,-100.00,SSW,197,4.0,-999.0,-999,0.00,,,0.42,,2013-05-29 23:22:00,
2013-05-29 18:33:00,86.0,-99.9,-100.00,SSW,198,5.0,-999.0,-999,0.00,,,0.42,,2013-05-29 23:33:00,
2013-05-29 18:43:00,86.0,-99.9,-100.00,SSW,198,5.0,-999.0,-999,0.00,,,0.42,,2013-05-29 23:43:00,
2013-05-29 18:53:00,86.0,-99.9,-100.00,SSW,198,5.0,-999.0,-999,0.00,,,0.42,,2013-05-29 23:53:00,
2013-05-29 19:02:00,87.0,-99.9,-100.00,SSW,196,3.0,-999.0,-999,0.00,,,0.41,,2013-05-30 00:02:00,
2013-05-29 19:12:00,87.0,-99.9,-100.00,SSW,196,3.0,-999.0,-999,0.00,,,0.41,,2013-05-30 00:12:00,
2013-05-29 19:22:00,87.0,-99.9,-100.00,SSW,196,3.0,-999.0,-999,0.00,,,0.41,,2013-05-30 00:22:00,
2013-05-29 19:32:00,84.0,-99.9,-100.00,SSE,154,2.0,-999.0,-999,0.00,,,0.41,,2013-05-30 00:32:00,
2013-05-29 19:42:00,84.0,-99.9,-100.00,SSE,154,2.0,-999.0,-999,0.00,,,0.41,,2013-05-30 00:42:00,
2013-05-29 19:52:00,83.0,-99.9,-100.00,South,179,2.0,-999.0,-999,0.00,,,0.40,,2013-05-30 00:52:00,
2013-05-29 20:00:00,81.0,-99.9,-100.00,South,173,2.0,-999.0,-999,0.00,,,0.40,,2013-05-30 01:00:00,
2013-05-29 20:02:00,83.0,-99.9,-100.00,South,179,2.0,-999.0,-999,0.00,,,0.40,,2013-05-30 01:02:00,
2013-05-29 20:11:00,83.0,-99.9,-100.00,South,179,2.0,-999.0,-999,0.00,,,0.40,,2013-05-30 01:11:00,
2013-05-29 20:22:00,83.0,-99.9,-100.00,South,179,2.0,-999.0,-999,0.00,,,0.40,,2013-05-30 01:22:00,
2013-05-29 20:32:00,81.0,-99.9,-100.00,South,173,2.0,-999.0,-999,0.00,,,0.40,,2013-05-30 01:32:00,
2013-05-29 20:42:00,81.0,-99.9,-100.00,South,173,2.0,-999.0,-999,0.00,,,0.40,,2013-05-30 01:42:00,
2013-05-29 20:53:00,81.0,-99.9,-100.00,South,173,2.0,-999.0,-999,0.00,,,0.40,,2013-05-30 01:53:00,
2013-05-29 22:02:00,77.0,-99.9,-100.00,SSW,194,1.0,-999.0,-999,-99.99,,,0.40,,2013-05-30 03:02:00,
2013-05-29 22:12:00,77.0,-99.9,-100.00,SSW,194,1.0,-999.0,-999,-99.99,,,0.40,,2013-05-30 03:12:00,
2013-05-29 22:22:00,77.0,-99.9,-100.00,SSW,194,1.0,-999.0,-999,-99.99,,,0.40,,2013-05-30 03:22:00,
2013-05-29 22:33:00,76.0,-99.9,-100.00,SSE,151,1.0,-999.0,-999,0.00,,,0.40,,2013-05-30 03:33:00,
2013-05-29 22:43:00,76.0,-99.9,-100.00,SSE,151,1.0,-999.0,-999,0.00,,,0.40,,2013-05-30 03:43:00,
2013-05-29 22:53:00,76.0,-99.9,-100.00,SSE,151,1.0,-999.0,-999,0.00,,,0.40,,2013-05-30 03:53:00,
2013-05-29 23:03:00,76.0,-99.9,-100.00,South,179,1.0,-999.0,-999,0.00,,,0.31,,2013-05-30 04:03:00,
2013-05-29 23:13:00,76.0,-99.9,-100.00,South,179,1.0,-999.0,-999,0.00,,,0.31,,2013-05-30 04:13:00,
2013-05-29 23:23:00,76.0,-99.9,-100.00,South,179,1.0,-999.0,-999,0.00,,,0.31,,2013-05-30 04:23:00,
2013-05-29 23:33:00,75.0,-99.9,-100.00,SSE,160,2.0,-999.0,-999,0.00,,,0.08,,2013-05-30 04:33:00,
2013-05-29 23:42:00,75.0,-99.9,-100.00,SSE,160,2.0,-999.0,-999,0.00,,,0.08,,2013-05-30 04:42:00,
2013-05-29 23:53:00,75.0,-99.9,-100.00,SSE,160,2.0,-999.0,-999,0.00,,,0.08,,2013-05-30 04:53:00,